TAM1457 SBCX-SBCT

Flight info

Callsign TAM1457
Flight time 0h 56m
Altitude 35000
Route BURPI DCT PENSO UZ132 VUGUP
Aircraft A319/M-SDE3FGHIRWY/LB1

Departure

Time 2026-04-12 02:23
Airport Hugo Cantergiani Regional Airport (SBCX)

Arrival

Time 2026-04-12 03:20
Airport Curitiba-Afonso Pena International Airport (SBCT)
Time Latitude Longitude Altitude Speed Heading
2026-04-12 01:47 -29.19510 -51.18754 2466 ft 0 kts 44°
2026-04-12 01:55 -29.19511 -51.18754 2467 ft 0 kts 44°
2026-04-12 02:08 -29.19511 -51.18755 2466 ft 0 kts 44°
2026-04-12 02:14 -29.19521 -51.18766 2472 ft 3 kts 46°
2026-04-12 02:15 -29.19532 -51.18780 2472 ft 2 kts 72°
2026-04-12 02:15 -29.19533 -51.18792 2467 ft 2 kts 125°
2026-04-12 02:15 -29.19520 -51.18809 2467 ft 4 kts 138°
2026-04-12 02:15 -29.19518 -51.18810 2469 ft 4 kts 135°
2026-04-12 02:16 -29.19529 -51.18798 2467 ft 2 kts 135°
2026-04-12 02:16 -29.19530 -51.18797 2467 ft 0 kts 135°
2026-04-12 02:18 -29.19538 -51.18788 2467 ft 4 kts 136°
2026-04-12 02:18 -29.19566 -51.18783 2471 ft 4 kts 204°
2026-04-12 02:18 -29.19568 -51.18785 2471 ft 0 kts 210°
2026-04-12 02:19 -29.19582 -51.18798 2468 ft 6 kts 220°
2026-04-12 02:20 -29.19618 -51.18866 2469 ft 13 kts 288°
2026-04-12 02:20 -29.19547 -51.18949 2470 ft 16 kts 316°
2026-04-12 02:20 -29.19462 -51.19042 2467 ft 19 kts 316°
2026-04-12 02:20 -29.19362 -51.19152 2468 ft 21 kts 315°
2026-04-12 02:21 -29.19258 -51.19268 2470 ft 21 kts 316°
2026-04-12 02:21 -29.19154 -51.19383 2473 ft 15 kts 313°
2026-04-12 02:21 -29.19111 -51.19460 2474 ft 10 kts
2026-04-12 02:21 -29.19124 -51.19416 2474 ft 8 kts 135°
2026-04-12 02:22 -29.19133 -51.19407 2475 ft 0 kts 136°
2026-04-12 02:22 -29.19134 -51.19405 2473 ft 4 kts 136°
2026-04-12 02:23 -29.19352 -51.19163 2473 ft 86 kts 135°
2026-04-12 02:23 -29.19963 -51.18481 2492 ft 153 kts 132°
2026-04-12 02:23 -29.20737 -51.17635 3115 ft 153 kts 129°
2026-04-12 02:23 -29.21505 -51.16788 3826 ft 154 kts 130°
2026-04-12 02:24 -29.22239 -51.15886 4467 ft 157 kts 115°
2026-04-12 02:24 -29.22483 -51.14672 4747 ft 165 kts 76°
2026-04-12 02:24 -29.21946 -51.13465 4988 ft 183 kts 49°
2026-04-12 02:24 -29.21103 -51.12236 5275 ft 210 kts 49°
2026-04-12 02:25 -29.20147 -51.10844 5707 ft 235 kts 50°
2026-04-12 02:25 -29.19086 -51.09293 6203 ft 260 kts 50°
2026-04-12 02:25 -29.17940 -51.07610 6910 ft 274 kts 50°
2026-04-12 02:25 -29.16756 -51.05863 7715 ft 281 kts 50°
2026-04-12 02:26 -29.15546 -51.04076 8562 ft 288 kts 50°
2026-04-12 02:26 -29.14302 -51.02240 9001 ft 294 kts 50°
2026-04-12 02:26 -29.12870 -51.00590 9166 ft 292 kts 34°
2026-04-12 02:26 -29.11084 -50.99504 9216 ft 291 kts 16°
2026-04-12 02:27 -29.09086 -50.99100 9910 ft 293 kts
2026-04-12 02:27 -29.07031 -50.98855 10519 ft 306 kts
2026-04-12 02:27 -29.04848 -50.98504 10810 ft 327 kts
2026-04-12 02:27 -29.02601 -50.98103 11409 ft 334 kts
2026-04-12 02:28 -29.00290 -50.97684 12122 ft 338 kts
2026-04-12 02:28 -28.97948 -50.97270 12855 ft 342 kts
2026-04-12 02:28 -28.95582 -50.96862 13580 ft 346 kts
2026-04-12 02:28 -28.93191 -50.96462 14272 ft 349 kts
2026-04-12 02:29 -28.90774 -50.96066 14931 ft 352 kts
2026-04-12 02:29 -28.88342 -50.95675 15589 ft 354 kts
2026-04-12 02:29 -28.85894 -50.95282 16251 ft 357 kts
2026-04-12 02:29 -28.83429 -50.94884 16913 ft 359 kts
2026-04-12 02:30 -28.80982 -50.94489 17567 ft 361 kts
2026-04-12 02:30 -28.78481 -50.94086 18234 ft 364 kts
2026-04-12 02:30 -28.75962 -50.93682 18839 ft 367 kts
2026-04-12 02:30 -28.73423 -50.93274 19391 ft 370 kts
2026-04-12 02:31 -28.70863 -50.92861 19938 ft 373 kts
2026-04-12 02:31 -28.68282 -50.92442 20479 ft 377 kts
2026-04-12 02:31 -28.65676 -50.92016 21020 ft 380 kts
2026-04-12 02:31 -28.63046 -50.91587 21554 ft 383 kts
2026-04-12 02:32 -28.60398 -50.91160 22075 ft 386 kts
2026-04-12 02:32 -28.57758 -50.90735 22592 ft 390 kts
2026-04-12 02:32 -28.55061 -50.90298 23121 ft 393 kts
2026-04-12 02:32 -28.52343 -50.89857 23631 ft 396 kts
2026-04-12 02:33 -28.49601 -50.89417 24089 ft 400 kts
2026-04-12 02:33 -28.46835 -50.88976 24518 ft 403 kts
2026-04-12 02:33 -28.44053 -50.88532 24952 ft 405 kts
2026-04-12 02:33 -28.41251 -50.88083 25378 ft 408 kts
2026-04-12 02:34 -28.38430 -50.87631 25808 ft 411 kts
2026-04-12 02:34 -28.35593 -50.87171 26237 ft 413 kts
2026-04-12 02:34 -28.32733 -50.86705 26643 ft 416 kts
2026-04-12 02:34 -28.29857 -50.86238 27054 ft 419 kts
2026-04-12 02:35 -28.26960 -50.85770 27464 ft 422 kts
2026-04-12 02:35 -28.24081 -50.85310 27848 ft 425 kts
2026-04-12 02:35 -28.21145 -50.84842 28239 ft 428 kts
2026-04-12 02:35 -28.18184 -50.84370 28643 ft 431 kts
2026-04-12 02:36 -28.15210 -50.83897 29036 ft 433 kts
2026-04-12 02:36 -28.12213 -50.83418 29441 ft 436 kts
2026-04-12 02:36 -28.09197 -50.82938 29825 ft 439 kts
2026-04-12 02:36 -28.06173 -50.82374 30178 ft 445 kts
2026-04-12 02:37 -28.03202 -50.81278 30515 ft 454 kts 19°
2026-04-12 02:37 -28.00356 -50.79651 30816 ft 461 kts 24°
2026-04-12 02:37 -27.97524 -50.77939 31119 ft 463 kts 23°
2026-04-12 02:37 -27.94703 -50.76243 31406 ft 466 kts 23°
2026-04-12 02:38 -27.91830 -50.74525 31694 ft 469 kts 23°
2026-04-12 02:38 -27.88937 -50.72800 31995 ft 471 kts 23°
2026-04-12 02:38 -27.86039 -50.71074 32391 ft 471 kts 22°
2026-04-12 02:38 -27.83141 -50.69346 32797 ft 471 kts 22°
2026-04-12 02:39 -27.80246 -50.67617 33206 ft 471 kts 22°
2026-04-12 02:39 -27.77350 -50.65886 33593 ft 471 kts 22°
2026-04-12 02:39 -27.74448 -50.64150 34003 ft 471 kts 22°
2026-04-12 02:39 -27.71552 -50.62419 34389 ft 471 kts 22°
2026-04-12 02:40 -27.68656 -50.60694 34748 ft 471 kts 22°
2026-04-12 02:40 -27.65796 -50.58993 35086 ft 471 kts 22°
2026-04-12 02:40 -27.62892 -50.57269 35215 ft 470 kts 22°
2026-04-12 02:40 -27.60029 -50.55567 35246 ft 462 kts 22°
2026-04-12 02:41 -27.54373 -50.52203 35241 ft 458 kts 22°
2026-04-12 02:41 -27.48742 -50.48869 35246 ft 457 kts 21°
2026-04-12 02:42 -27.43150 -50.45562 35248 ft 457 kts 22°
2026-04-12 02:43 -27.34732 -50.40512 35242 ft 457 kts 22°
2026-04-12 02:43 -27.29123 -50.37138 35241 ft 457 kts 22°
2026-04-12 02:44 -27.23516 -50.33772 35237 ft 457 kts 22°
2026-04-12 02:44 -27.17901 -50.30423 35235 ft 457 kts 22°
2026-04-12 02:45 -27.12312 -50.27127 35231 ft 457 kts 22°
2026-04-12 02:45 -27.09493 -50.25471 35082 ft 458 kts 22°
2026-04-12 02:45 -27.06662 -50.23811 34515 ft 460 kts 22°
2026-04-12 02:45 -27.03828 -50.22146 33997 ft 459 kts 22°
2026-04-12 02:46 -27.01007 -50.20487 33491 ft 457 kts 22°
2026-04-12 02:46 -26.98205 -50.18834 33000 ft 454 kts 22°
2026-04-12 02:46 -26.95420 -50.17191 32504 ft 451 kts 23°
2026-04-12 02:46 -26.92651 -50.15561 32015 ft 448 kts 23°
2026-04-12 02:47 -26.89898 -50.13946 31530 ft 446 kts 23°
2026-04-12 02:47 -26.87158 -50.12339 31062 ft 443 kts 23°
2026-04-12 02:47 -26.84474 -50.10765 30608 ft 440 kts 23°
2026-04-12 02:47 -26.81772 -50.09181 30116 ft 437 kts 23°
2026-04-12 02:48 -26.79090 -50.07606 29663 ft 433 kts 23°
2026-04-12 02:48 -26.76441 -50.06053 29227 ft 428 kts 23°
2026-04-12 02:48 -26.73813 -50.04516 28808 ft 424 kts 23°
2026-04-12 02:48 -26.71212 -50.02995 28393 ft 420 kts 23°
2026-04-12 02:49 -26.68636 -50.01489 27976 ft 416 kts 23°
2026-04-12 02:49 -26.66079 -49.99996 27567 ft 413 kts 23°
2026-04-12 02:49 -26.63536 -49.98512 27155 ft 410 kts 24°
2026-04-12 02:49 -26.61015 -49.97041 26732 ft 408 kts 24°
2026-04-12 02:50 -26.58539 -49.95595 26321 ft 406 kts 24°
2026-04-12 02:50 -26.56045 -49.94135 25893 ft 404 kts 24°
2026-04-12 02:50 -26.53559 -49.92679 25453 ft 402 kts 24°
2026-04-12 02:50 -26.51085 -49.91233 25015 ft 401 kts 24°
2026-04-12 02:51 -26.48614 -49.89796 24562 ft 400 kts 24°
2026-04-12 02:51 -26.46153 -49.88367 24122 ft 399 kts 24°
2026-04-12 02:51 -26.43693 -49.86936 23636 ft 398 kts 24°
2026-04-12 02:51 -26.41254 -49.85515 23154 ft 394 kts 25°
2026-04-12 02:52 -26.38829 -49.84106 22701 ft 391 kts 25°
2026-04-12 02:52 -26.36430 -49.82713 22247 ft 387 kts 25°
2026-04-12 02:52 -26.34083 -49.81372 21818 ft 382 kts 22°
2026-04-12 02:52 -26.31620 -49.80336 21396 ft 376 kts 17°
2026-04-12 02:53 -26.29164 -49.79366 20971 ft 372 kts 17°
2026-04-12 02:53 -26.26738 -49.78404 20545 ft 369 kts 18°
2026-04-12 02:53 -26.21948 -49.76492 19713 ft 362 kts 18°
2026-04-12 02:54 -26.19583 -49.75542 19295 ft 360 kts 18°
2026-04-12 02:54 -26.17239 -49.74602 18876 ft 357 kts 18°
2026-04-12 02:54 -26.14911 -49.73671 18454 ft 355 kts 18°
2026-04-12 02:54 -26.12595 -49.72751 18011 ft 351 kts 18°
2026-04-12 02:55 -26.10337 -49.71856 17610 ft 347 kts 18°
2026-04-12 02:55 -26.08073 -49.70957 17205 ft 344 kts 19°
2026-04-12 02:55 -26.05831 -49.70066 16805 ft 341 kts 19°
2026-04-12 02:55 -26.03610 -49.69184 16409 ft 338 kts 19°
2026-04-12 02:56 -26.01391 -49.68303 15810 ft 341 kts 19°
2026-04-12 02:56 -25.99183 -49.67427 15595 ft 332 kts 19°
2026-04-12 02:56 -25.97019 -49.66568 15240 ft 329 kts 19°
2026-04-12 02:56 -25.94869 -49.65716 14856 ft 327 kts 19°
2026-04-12 02:57 -25.92731 -49.64867 14476 ft 325 kts 19°
2026-04-12 02:57 -25.91323 -49.64308 14221 ft 324 kts 19°
2026-04-12 02:57 -25.89202 -49.63466 13820 ft 323 kts 19°
2026-04-12 02:57 -25.86415 -49.62361 13308 ft 319 kts 19°
2026-04-12 02:58 -25.84328 -49.61535 12930 ft 317 kts 19°
2026-04-12 02:58 -25.82262 -49.60716 12555 ft 315 kts 19°
2026-04-12 02:58 -25.80203 -49.59902 12179 ft 313 kts 19°
2026-04-12 02:58 -25.78163 -49.59094 11801 ft 311 kts 19°
2026-04-12 02:59 -25.76815 -49.58560 11559 ft 310 kts 19°
2026-04-12 02:59 -25.74790 -49.57758 11189 ft 308 kts 19°
2026-04-12 02:59 -25.72264 -49.56763 10725 ft 307 kts 19°
2026-04-12 02:59 -25.70282 -49.55985 10398 ft 304 kts 19°
2026-04-12 03:00 -25.68286 -49.55198 10040 ft 302 kts 19°
2026-04-12 03:00 -25.66309 -49.54418 9658 ft 300 kts 19°
2026-04-12 03:00 -25.64357 -49.53650 9345 ft 296 kts 20°
2026-04-12 03:00 -25.63049 -49.53135 8971 ft 294 kts 20°
2026-04-12 03:01 -25.60524 -49.52135 8252 ft 287 kts 22°
2026-04-12 03:01 -25.59349 -49.51497 7981 ft 280 kts 32°
2026-04-12 03:01 -25.57843 -49.50183 7843 ft 277 kts 45°
2026-04-12 03:01 -25.56466 -49.48680 7777 ft 278 kts 45°
2026-04-12 03:02 -25.55084 -49.47186 7725 ft 279 kts 45°
2026-04-12 03:02 -25.53699 -49.45693 7673 ft 277 kts 45°
2026-04-12 03:02 -25.52299 -49.44181 7601 ft 277 kts 45°
2026-04-12 03:02 -25.50942 -49.42718 7540 ft 266 kts 45°
2026-04-12 03:03 -25.49663 -49.41339 7476 ft 254 kts 45°
2026-04-12 03:03 -25.48408 -49.39988 7429 ft 242 kts 45°
2026-04-12 03:03 -25.47252 -49.38742 7373 ft 229 kts 45°
2026-04-12 03:03 -25.46128 -49.37530 7135 ft 223 kts 46°
2026-04-12 03:04 -25.45029 -49.36345 6910 ft 218 kts 46°
2026-04-12 03:04 -25.43958 -49.35189 6669 ft 213 kts 46°
2026-04-12 03:04 -25.42911 -49.34055 6432 ft 208 kts 46°
2026-04-12 03:04 -25.41895 -49.32944 6204 ft 202 kts 48°
2026-04-12 03:05 -25.41308 -49.31616 6009 ft 190 kts 83°
2026-04-12 03:05 -25.41591 -49.30256 5866 ft 179 kts 117°
2026-04-12 03:05 -25.42400 -49.29252 5697 ft 171 kts 130°
2026-04-12 03:05 -25.43226 -49.28334 5500 ft 165 kts 130°
2026-04-12 03:06 -25.44023 -49.27446 5302 ft 159 kts 129°
2026-04-12 03:06 -25.44787 -49.26594 5097 ft 153 kts 129°
2026-04-12 03:06 -25.45516 -49.25780 4908 ft 144 kts 129°
2026-04-12 03:06 -25.46188 -49.25030 4720 ft 133 kts 129°
2026-04-12 03:07 -25.46823 -49.24320 4552 ft 130 kts 129°
2026-04-12 03:07 -25.47455 -49.23613 4376 ft 129 kts 129°
2026-04-12 03:07 -25.48087 -49.22906 4215 ft 129 kts 130°
2026-04-12 03:07 -25.48716 -49.22201 4041 ft 129 kts 130°
2026-04-12 03:08 -25.49349 -49.21493 3859 ft 130 kts 130°
2026-04-12 03:08 -25.49991 -49.20775 3667 ft 132 kts 131°
2026-04-12 03:08 -25.50637 -49.20053 3488 ft 133 kts 132°
2026-04-12 03:08 -25.51291 -49.19319 3284 ft 135 kts 132°
2026-04-12 03:09 -25.51950 -49.18593 3103 ft 133 kts 131°
2026-04-12 03:09 -25.52584 -49.17886 3004 ft 124 kts 133°
2026-04-12 03:09 -25.53151 -49.17257 3023 ft 125 kts 130°
2026-04-12 03:09 -25.53786 -49.16546 3534 ft 132 kts 131°
2026-04-12 03:10 -25.54491 -49.15835 4232 ft 143 kts 142°
2026-04-12 03:10 -25.55515 -49.15720 4821 ft 163 kts 193°
2026-04-12 03:10 -25.56398 -49.16649 5034 ft 196 kts 249°
2026-04-12 03:10 -25.56405 -49.18212 5292 ft 217 kts 288°
2026-04-12 03:11 -25.55814 -49.19818 5721 ft 232 kts 299°
2026-04-12 03:11 -25.55085 -49.21413 6587 ft 233 kts 298°
2026-04-12 03:11 -25.54379 -49.23042 7218 ft 236 kts 296°
2026-04-12 03:11 -25.53695 -49.24672 7410 ft 234 kts 296°
2026-04-12 03:12 -25.53009 -49.26320 7471 ft 231 kts 296°
2026-04-12 03:12 -25.52371 -49.27859 7475 ft 218 kts 296°
2026-04-12 03:12 -25.51741 -49.29375 7478 ft 216 kts 296°
2026-04-12 03:12 -25.51087 -49.30941 7487 ft 230 kts 296°
2026-04-12 03:13 -25.50406 -49.32563 7319 ft 233 kts 296°
2026-04-12 03:13 -25.49724 -49.34187 6921 ft 233 kts 296°
2026-04-12 03:13 -25.48837 -49.35662 6429 ft 230 kts 320°
2026-04-12 03:13 -25.47475 -49.36495 5958 ft 220 kts 350°
2026-04-12 03:14 -25.46035 -49.36538 5889 ft 198 kts 16°
2026-04-12 03:14 -25.44786 -49.35975 5953 ft 192 kts 37°
2026-04-12 03:14 -25.43809 -49.35002 5968 ft 188 kts 46°
2026-04-12 03:14 -25.42874 -49.33992 5967 ft 187 kts 46°
2026-04-12 03:15 -25.41942 -49.32987 5977 ft 187 kts 47°
2026-04-12 03:15 -25.41308 -49.31820 5994 ft 169 kts 78°
2026-04-12 03:15 -25.41403 -49.30602 5894 ft 157 kts 109°
2026-04-12 03:15 -25.42063 -49.29654 5684 ft 155 kts 131°
2026-04-12 03:16 -25.42800 -49.28827 5550 ft 147 kts 129°
2026-04-12 03:16 -25.43508 -49.28029 5404 ft 144 kts 129°
2026-04-12 03:16 -25.44196 -49.27256 5248 ft 142 kts 129°
2026-04-12 03:16 -25.44883 -49.26489 5081 ft 136 kts 128°
2026-04-12 03:17 -25.45531 -49.25764 4901 ft 130 kts 128°
2026-04-12 03:17 -25.46162 -49.25057 4730 ft 128 kts 129°
2026-04-12 03:17 -25.46787 -49.24358 4564 ft 128 kts 129°
2026-04-12 03:17 -25.47417 -49.23653 4395 ft 129 kts 130°
2026-04-12 03:18 -25.48051 -49.22945 4223 ft 129 kts 130°
2026-04-12 03:18 -25.48682 -49.22239 4052 ft 129 kts 130°
2026-04-12 03:18 -25.49315 -49.21531 3866 ft 130 kts 131°
2026-04-12 03:18 -25.49954 -49.20816 3682 ft 131 kts 131°
2026-04-12 03:19 -25.50598 -49.20096 3494 ft 132 kts 132°
2026-04-12 03:19 -25.51252 -49.19365 3307 ft 134 kts 132°
2026-04-12 03:19 -25.51904 -49.18636 3122 ft 132 kts 132°
2026-04-12 03:19 -25.52533 -49.17930 3001 ft 124 kts 132°
2026-04-12 03:20 -25.53053 -49.17345 2996 ft 84 kts 134°
2026-04-12 03:20 -25.53336 -49.17027 2995 ft 26 kts 135°
2026-04-12 03:20 -25.53458 -49.16892 2995 ft 24 kts 135°
2026-04-12 03:20 -25.53552 -49.16789 2994 ft 14 kts 134°
2026-04-12 03:21 -25.53610 -49.16810 2995 ft 14 kts 271°
2026-04-12 03:21 -25.53611 -49.16920 2995 ft 15 kts 269°
2026-04-12 03:21 -25.53637 -49.17032 2996 ft 15 kts 283°
2026-04-12 03:21 -25.53577 -49.17105 2996 ft 10 kts 315°
2026-04-12 03:22 -25.53582 -49.17157 2996 ft 8 kts 209°
2026-04-12 03:22 -25.53595 -49.17190 2996 ft 2 kts 256°
2026-04-12 03:22 -25.53596 -49.17195 2996 ft 0 kts 258°
2026-04-12 03:28 -25.53596 -49.17194 2996 ft 0 kts 258°